Date String (YYYY-MM-DD hh:mm:ss) UTC,Instrument flags,Ambient pressure (hPa),Sample flow (lpm),Bypass flow (lpm),Sample temperature (°C),Ambient temperature (°C),ASC tube jacket temperature (°C),LED temperature (°C),Box temperature (°C),Sample RH (%),Span deviation,Mass concentration (μg/m³),Mass concentration (μg/m³),Mass concentration (μg/m³)
DateTimeUTC,F1_M11,P_M11,Q1_M11,Q2_M11,T1_M11,T2_M11,T3_M11,T4_M11,T5_M11,U1_M11,ZSPAN_M11,X0_M11,X2_M11,X1_M11
2023-01-05 04:00:00,,0825.9,5.01,0.00,22.4,20.7,00.0,31.3,24.0,09.0,0000.8,0017.20,0011.15,0010.52
2023-01-05 04:01:00,,0826.0,5.00,0.00,22.3,20.7,00.0,31.2,24.0,09.0,0000.6,0016.73,0010.95,0010.34
2023-01-05 04:02:00,,0826.0,5.01,0.00,22.4,21.3,00.0,31.2,24.1,09.0,0000.1,0016.61,0010.85,0010.23
2023-01-05 04:03:00,,0826.0,5.00,0.00,22.5,22.3,00.0,31.2,24.4,09.0,-000.1,0016.48,0010.69,0010.08
2023-01-05 04:04:00,,0826.0,5.00,0.00,22.6,22.8,00.0,31.2,24.5,08.9,-000.4,0016.42,0010.55,0009.93
2023-01-05 04:05:00,,0825.9,4.99,0.00,22.6,22.4,00.0,31.3,24.5,08.9,-000.9,0016.22,0010.47,0009.87
2023-01-05 04:06:00,,0826.0,5.00,0.00,22.6,21.9,00.0,31.3,24.3,08.9,-001.3,0016.38,0010.40,0009.80
2023-01-05 04:07:00,,0825.9,5.00,0.00,22.5,21.5,00.0,31.3,24.2,08.8,-001.6,0016.15,0010.29,0009.69
2023-01-05 04:08:00,,0825.9,5.01,0.00,22.5,21.2,00.0,31.3,24.1,08.8,-001.8,0015.94,0010.16,0009.61
2023-01-05 04:09:00,,0826.0,5.01,0.00,22.4,21.0,00.0,31.3,24.0,08.7,-002.0,0015.68,0010.02,0009.50
2023-01-05 04:10:00,,0825.9,5.01,0.00,22.4,20.9,00.0,31.3,24.0,08.8,-002.1,0015.57,0009.93,0009.42
2023-01-05 04:11:00,,0826.0,4.99,0.00,22.3,20.8,00.0,31.3,23.9,08.8,-002.5,0015.05,0009.80,0009.28
2023-01-05 04:12:00,,0826.0,5.00,0.00,22.3,20.7,00.0,31.3,23.9,08.7,-002.7,0015.35,0009.70,0009.16
2023-01-05 04:13:00,,0826.0,5.00,0.00,22.3,20.7,00.0,31.2,23.8,08.8,-002.5,0015.20,0009.55,0009.00
2023-01-05 04:14:00,,0826.0,4.99,0.00,22.2,20.6,00.0,31.2,23.7,08.8,-002.4,0014.99,0009.38,0008.84
2023-01-05 04:15:00,,0825.9,5.00,0.00,22.2,20.5,00.0,31.2,23.7,08.7,-001.7,0013.98,0009.19,0008.68
2023-01-05 04:16:00,,0825.8,5.01,0.00,22.2,20.9,00.0,31.1,23.8,08.8,-001.7,0013.10,0008.98,0008.47
2023-01-05 04:17:00,,0825.8,5.01,0.00,22.3,21.9,00.0,31.1,24.1,08.7,-001.7,0012.68,0008.76,0008.25
2023-01-05 04:18:00,,0825.8,5.00,0.00,22.4,22.7,00.0,31.1,24.3,08.7,-001.4,0012.55,0008.68,0008.15
2023-01-05 04:19:00,,0825.9,5.00,0.00,22.5,22.6,00.0,31.2,24.4,08.6,-001.6,0013.24,0008.63,0008.11
2023-01-05 04:20:00,,0825.9,4.99,0.00,22.5,22.2,00.0,31.2,24.3,08.6,-001.5,0013.61,0008.59,0008.06
2023-01-05 04:21:00,,0826.0,5.01,0.00,22.4,21.8,00.0,31.2,24.2,08.6,-001.5,0013.63,0008.57,0008.02
2023-01-05 04:22:00,,0826.0,5.01,0.00,22.4,21.5,00.0,31.2,24.1,08.6,-001.5,0013.92,0008.57,0008.03
2023-01-05 04:23:00,,0826.0,5.00,0.00,22.4,21.2,00.0,31.2,24.0,08.7,-001.2,0013.49,0008.53,0008.02
2023-01-05 04:24:00,,0826.0,4.99,0.00,22.3,21.0,00.0,31.2,24.0,08.6,-001.3,0013.45,0008.49,0008.01
2023-01-05 04:25:00,,0826.0,5.00,0.00,22.3,20.9,00.0,31.2,23.9,08.6,-001.4,0013.54,0008.46,0007.99
2023-01-05 04:26:00,,0826.0,5.01,0.00,22.3,20.8,00.0,31.2,23.8,08.6,-001.9,0013.63,0008.44,0007.97
2023-01-05 04:27:00,,0826.0,5.00,0.00,22.2,20.7,00.0,31.2,23.8,08.6,-002.0,0013.71,0008.43,0007.94
2023-01-05 04:28:00,,0826.0,5.01,0.00,22.2,20.6,00.0,31.1,23.7,08.6,-001.6,0013.68,0008.39,0007.90
2023-01-05 04:29:00,,0826.1,4.99,0.00,22.1,20.5,00.0,31.1,23.7,08.6,-001.6,0013.70,0008.34,0007.85
2023-01-05 04:30:00,,0826.1,5.00,0.00,22.1,20.6,00.0,31.1,23.7,08.6,-001.7,0013.65,0008.26,0007.77
2023-01-05 04:31:00,,0826.2,5.01,0.00,22.2,21.5,00.0,31.0,23.9,08.5,-001.3,0012.81,0008.19,0007.68
2023-01-05 04:32:00,,0826.1,5.00,0.00,22.3,22.5,00.0,31.0,24.2,08.4,-001.3,0012.66,0008.11,0007.62
2023-01-05 04:33:00,,0826.1,4.99,0.00,22.4,22.8,00.0,31.1,24.4,08.3,0000.0,0012.39,0007.97,0007.53
2023-01-05 04:34:00,,0826.2,4.99,0.00,22.4,22.3,00.0,31.1,24.3,08.3,0000.0,0012.25,0007.85,0007.43
2023-01-05 04:35:00,,0826.2,5.01,0.00,22.4,21.9,00.0,31.2,24.2,08.3,0000.0,0012.10,0007.73,0007.32
2023-01-05 04:36:00,,0826.2,5.00,0.00,22.4,21.6,00.0,31.2,24.2,08.4,0000.0,0012.03,0007.65,0007.23
2023-01-05 04:37:00,,0826.1,5.00,0.00,22.4,21.3,00.0,31.2,24.1,08.4,0000.0,0012.05,0007.58,0007.15
2023-01-05 04:38:00,,0825.9,4.99,0.00,22.4,21.1,00.0,31.2,24.1,08.4,0000.0,0011.92,0007.49,0007.07
2023-01-05 04:39:00,,0826.0,5.00,0.00,22.3,21.0,00.0,31.2,24.1,08.4,0000.0,0011.87,0007.45,0007.04
2023-01-05 04:40:00,,0826.0,5.01,0.00,22.3,20.9,00.0,31.2,24.0,08.5,0000.0,0011.89,0007.43,0007.02
2023-01-05 04:41:00,,0826.1,5.00,0.00,22.3,20.9,00.0,31.2,24.0,08.5,-000.1,0011.61,0007.45,0007.03
2023-01-05 04:42:00,,0826.1,4.99,0.00,22.3,20.8,00.0,31.2,23.9,08.5,-001.4,0011.80,0007.44,0007.04
2023-01-05 04:43:00,,0826.2,4.98,0.00,22.3,20.7,00.0,31.2,23.9,08.5,-001.5,0011.82,0007.43,0007.04
2023-01-05 04:44:00,,0826.1,5.00,0.00,22.2,20.7,00.0,31.1,23.8,08.1,-001.5,0011.52,0007.35,0006.95
2023-01-05 04:45:00,,0826.2,5.00,0.00,22.2,20.6,00.0,31.1,23.8,08.3,-001.6,0011.54,0007.35,0006.91
2023-01-05 04:46:00,,0826.1,5.03,0.00,22.2,21.1,00.0,31.1,24.0,08.4,-001.3,0012.21,0007.36,0006.89
2023-01-05 04:47:00,,0826.2,5.02,0.00,22.3,22.1,00.0,31.1,24.2,08.3,-000.4,0012.15,0007.32,0006.86
2023-01-05 04:48:00,,0826.2,4.99,0.00,22.4,23.0,00.0,31.1,24.4,08.3,-000.5,0011.80,0007.28,0006.82
2023-01-05 04:49:00,,0826.2,4.99,0.00,22.5,22.8,00.0,31.1,24.5,08.2,0000.0,0011.83,0007.30,0006.81
2023-01-05 04:50:00,,0826.2,5.00,0.00,22.5,22.3,00.0,31.2,24.4,08.1,0000.0,0011.78,0007.25,0006.76
2023-01-05 04:51:00,,0826.2,5.00,0.00,22.5,21.9,00.0,31.2,24.3,08.2,0000.0,0011.76,0007.17,0006.71
2023-01-05 04:52:00,,0826.2,5.01,0.00,22.5,21.6,00.0,31.2,24.3,08.2,0000.0,0011.55,0007.09,0006.65
2023-01-05 04:53:00,,0826.2,5.00,0.00,22.5,21.4,00.0,31.2,24.2,08.2,0000.6,0011.27,0007.06,0006.61
2023-01-05 04:54:00,,0826.3,5.00,0.00,22.5,21.3,00.0,31.2,24.2,08.2,0000.0,0011.35,0007.04,0006.58
2023-01-05 04:55:00,,0826.3,5.01,0.00,22.4,21.2,00.0,31.2,24.2,08.2,0001.6,0011.54,0007.15,0006.66
2023-01-05 04:56:00,,0826.3,5.01,0.00,22.4,21.1,00.0,31.2,24.1,08.3,0003.4,0012.33,0007.25,0006.76
2023-01-05 04:57:00,,0826.2,5.00,0.00,22.4,21.0,00.0,31.2,24.1,08.4,0003.7,0011.84,0007.30,0006.80
2023-01-05 04:58:00,,0826.3,4.99,0.00,22.4,20.9,00.0,31.2,24.1,08.4,0002.8,0012.21,0007.36,0006.86
2023-01-05 04:59:00,,0826.2,4.99,0.00,22.4,20.9,00.0,31.2,24.1,08.5,0002.4,0012.37,0007.41,0006.92
